Regional Weather Roundup
Issued by NWS

Home | Current Version | Previous Version | Graphics & Text | Print | Product List | Glossary On
Versions: 1 2 3 4 5 6 7 8 9 10 11 12 13 14 15 16 17 18 19 20 21 22 23 24 25 26 27 28 29 30 31 32 33 34 35 36 37 38 39 40 41 42 43 44 45 46 47 48 49 50
252
ASUS43 KMPX 280001
RWRMN
WEATHER ROUNDUP FOR MINNESOTA
NATIONAL WEATHER SERVICE TWIN CITIES/CHANHASSEN MN
700 PM CDT SAT MAY 27 2017


NOTE: "FAIR" INDICATES FEW OR NO CLOUDS BELOW 12,000 FEET WITH NO
SIGNIFICANT WEATHER AND/OR OBSTRUCTIONS TO VISIBILITY. N/A MEANS
CURRENT SKY AND/OR WEATHER CONDITIONS ARE NOT AVAILABLE.

MNZ060>063-068>070-280100-
   Twin Cities Metro

CITY           SKY/WX    TMP DP  RH WIND       PRES   REMARKS
TWIN CITIES    MOSUNNY   71  47  42 SW8       29.86S
6HR MIN TEMP:  68; 6HR MAX TEMP:  71; 6HR PCP: TRACE;

ST PAUL        SUNNY     69  50  50 SW7       29.86S
CRYSTAL        MOSUNNY   70  48  45 SW12      29.84S
BLAINE         MOSUNNY   73  48  40 SW7       29.84S
LAKEVILLE      SUNNY     68  48  49 SW6       29.88R
EDEN PRAIRIE   SUNNY     71  48  43 S10       29.85S
6HR MIN TEMP:  67; 6HR MAX TEMP:  71;

SOUTH ST PAUL  SUNNY     70  47  43 SW7       29.86R
LAKE ELMO      FAIR      68  52  56 SW8       29.87R
$$
MNZ001>005-007-008-013>017-022>024-027-028-280100-
   Northwest Minnesota

CITY           SKY/WX    TMP DP  RH WIND       PRES   REMARKS
BEMIDJI        CLOUDY    68  41  37 S13G20    29.74S
HALLOCK        PTSUNNY   66  46  48 CALM      29.68F
ROSEAU         MOSUNNY   66  45  45 W10G16    29.71R
WARROAD        SUNNY     70  43  37 W7        29.70S
THIEF RVR FALL LGT RAIN  68  43  40 SW16G25   29.73R
CROOKSTON      LGT RAIN  61  46  59 N12G22    29.72R
FOSSTON        CLOUDY    70  37  30 W7        29.74S
DETROIT LAKES  MOSUNNY   72  37  28 SW7       29.76F
MOORHEAD       MOSUNNY   75  37  25 W15       29.73F
PARK RAPIDS    CLOUDY    70  36  28 SW16G22   29.76F
MAHNOMEN       MOCLDY    70  38  31 NW12G20   29.73S
$$
MNZ006-009>011-018-025>026-280100-
   North Central Minnesota

CITY           SKY/WX    TMP DP  RH WIND       PRES   REMARKS
BAUDETTE       LGT RAIN  67  43  41 SW12G28   29.72R
FLAG ISLAND    MOSUNNY   64  45  48 SE5       29.68F
INTL FALLS     PTSUNNY   66  40  38 NW12      29.73S
6HR MIN TEMP:  65; 6HR MAX TEMP:  76;

WASKISH        MOSUNNY   66  46  48 W6        29.74S
BIG FORK       MOSUNNY   70  37  30 SW12      29.74S
LONGVILLE      LGT RAIN  63  48  59 N7        29.79R
GRAND RAPIDS   MOSUNNY   70  41  34 SW12      29.79S
CRANE LAKE     MOSUNNY   70  36  28 W7        29.74S
ORR            SUNNY     72  30  21 W5        29.71S
COOK           SUNNY     72  37  28 SW10G20   29.75S
WALKER         MOCLDY    68  41  36 W5        29.76S
$$
MNZ012-019>021-037-280100-
   Northeast Minnesota

CITY           SKY/WX    TMP DP  RH WIND       PRES   REMARKS
DULUTH         MOSUNNY   70  43  37 W12       29.79R
6HR MIN TEMP:  70; 6HR MAX TEMP:  75;

ELY            SUNNY     72  36  26 SW14      29.75S
HIBBING        SUNNY     71  39  31 SW9G17    29.76S
EVELETH        SUNNY     73  28  19 SW14      29.77S
DULUTH HARBOR  MOSUNNY   73  45  35 SW9       29.77R
TWO HARBORS    MOSUNNY   75  48  38 SW6       29.75S
SILVER BAY     MOSUNNY   72  43  35 S15       29.74S
GRAND MARAIS     N/A     50  42  74 VRB3      29.76F
G MARAIS ARPRT CLOUDY    64  36  34 S6        29.80S
$$
MNZ029>031-032-039>041-046>048-054>057-064-280100-
   West Central Minnesota

CITY           SKY/WX    TMP DP  RH WIND       PRES   REMARKS
FERGUS FALLS   MOSUNNY   70  46  43 SW12      29.75F
WHEATON        SUNNY     72  37  28 SW12G23   29.80F
MORRIS         PTSUNNY   72  45  37 SW8       29.81S
ALEXANDRIA     CLOUDY    69  42  37 SW7       29.83S
ELBOW LAKE     FAIR      67  47  47 S9        29.80F
WADENA         CLOUDY    70  43  37 SW16G22   29.78S
GLENWOOD       CLOUDY    70  39  32 S13       29.83F
APPLETON       PTSUNNY   72  39  30 SW10      29.82F
BENSON         CLOUDY    70  39  32 W9        29.84S
ORTONVILLE     MOSUNNY   72  39  30 W8        29.82F
MADISON        CLOUDY    72  41  33 W9        29.84S
WILLMAR        FAIR      72  45  37 W7        29.85F
$$
MNZ033>034-036-042>043-049>051-058-059-280100-
   Central Minnesota

CITY           SKY/WX    TMP DP  RH WIND       PRES   REMARKS
ST CLOUD       CLOUDY    69  45  41 SW6       29.83S
6HR MIN TEMP:  68; 6HR MAX TEMP:  73;

SAUK CENTRE    FAIR      70  43  37 SW8       29.83S
PAYNESVILLE    CLOUDY    68  42  38 S3        29.84S
AITKIN         SUNNY     68  43  40 S7        29.78S
PINE RIVER     CLOUDY    70  45  40 S8        29.81S
BRAINERD       SUNNY     70  42  36 SW16G23   29.80S
STAPLES        MOSUNNY   70  39  32 SW10      29.79S
LONG PRAIRIE   FAIR      70  43  37 S13G18    29.82S
LITTLE FALLS   CLOUDY    70  37  30 SW7G16    29.82S
LITCHFIELD     PTSUNNY   70  48  46 NW3       29.85S
BUFFALO        MOSUNNY   71  42  34 S5        29.85S
MAPLE LAKE     MOSUNNY   70  47  44 SW3       29.85S
HUTCHINSON     PTSUNNY   72  43  35 SW6       29.86S
$$
MNZ037-044-045-052-053-280100-
   East Central Minnesota

CITY           SKY/WX    TMP DP  RH WIND       PRES   REMARKS
PRINCETON      SUNNY     72  43  35 W10       29.83S
MORA           MOSUNNY   68  43  40 SW5       29.84S
CAMBRIDGE      MOSUNNY   73  52  46 SW6       29.81F
RUSH CITY      PTSUNNY   71  44  39 W7        29.83S
MOOSE LAKE     PTSUNNY   70  41  35 SW8       29.79S
HINCKLEY       MOCLDY    70  48  46 SW7       29.81S
CLOQUET        SUNNY     72  36  26 SW12      29.79S
MCGREGOR       SUNNY     70  41  35 SW9       29.80S
$$
MNZ071>073-080-081-089-090-097-098-280100-
   Southwest Minnesota

CITY           SKY/WX    TMP DP  RH WIND       PRES   REMARKS
MONTEVIDEO     CLOUDY    72  43  35 W5        29.84S
CANBY          CLOUDY    69  45  42 CALM      29.87S
MARSHALL       CLOUDY    69  48  47 W13       29.87S
REDWOOD FALLS  MOSUNNY   71  40  32 SW9       29.85S
OLIVIA         CLOUDY    70  41  35 W7        29.84F
PIPESTONE      MOSUNNY   66  43  42 NW7       29.89F
WINDOM         PTSUNNY   68  45  42 SW5       29.89S
WORTHINGTON    CLOUDY    66  47  50 W9        29.90F
JACKSON        CLOUDY    68  45  42 CALM      29.91S
TRACY          PTSUNNY   69  47  44 W5        29.88S
SLAYTON        PTSUNNY   65  50  58 SW13      29.90F
$$
MNZ065>067-074>077-082>085-091>093-280100-
   South Central Minnesota

CITY           SKY/WX    TMP DP  RH WIND       PRES   REMARKS
MANKATO          N/A     71  44  37 SW6       29.88S
NEW ULM        MOSUNNY   70  43  37 SW6       29.87R
ST JAMES       CLOUDY    70  45  40 CALM      29.89S
FAIRMONT       SUNNY     69  45  41 NW6       29.90S
GLENCOE        SUNNY     73  41  31 CALM      29.85S
FARIBAULT      CLOUDY    70  46  43 SW3       29.89S
OWATONNA       CLOUDY    68  39  34 CALM      29.89S
WASECA         PTSUNNY   68  39  34 NW7       29.89F
ALBERT LEA     SUNNY     70  46  43 CALM      29.89R
$$
MNZ078>079-086>088-094>096-280100-
   Southeast Minnesota

CITY           SKY/WX    TMP DP  RH WIND       PRES   REMARKS
ROCHESTER      CLOUDY    65  51  60 SE5       29.90S
6HR MIN TEMP:  63; 6HR MAX TEMP:  70; 6HR PCP: TRACE;

RED WING       CLOUDY    68  41  37 CALM      29.86F
STANTON        CLOUDY    69  44  40 CALM      29.86S
DODGE CENTER   MOSUNNY   66  43  42 NW5       29.89R
WINONA         DRIZZLE   61  55  82 NW3       29.89S
AUSTIN         CLOUDY    66  46  48 CALM      29.89R
PRESTON        LGT RAIN  62  52  70 CALM      29.90S
$$
ABBREVIATIONS USED IN REMARKS
   TC - TEMPERATURES IN CELSIUS
  WCI - WIND CHILL INDEX
   HX - HEAT INDEX
  VSB - VISIBILITY
$$




USA.gov is the U.S. government's official web portal to all federal, state and local government web resources and services.